Location: Bun Machan
(52.1403°N, 7.3744°W)
Time: 01:32:06
(UTC+00:00)

Cosmos 1666 - Pass Details

Date: 14 July 2020
Orbit: 497 x 521 km, 82.5° (Epoch: 11 August)

Event Time Altitude Azimuth Distance (km) Brightness Sun altitude
Exits shadow 02:48:11 12° 182° (S) 1,573 4.6 -10.8°
Maximum altitude 02:51:35 73° 98° (E) 534 2.8 -10.5°
Drops below altitude 10° 02:55:20 10° 14° (NNE) 1,724 6.7 -10.2°
Sets 02:57:28 0° 13° (NNE) 2,611 7.8 -10.0°
